[[{"header":{"parameterUnit":"m.s-1","parameterCategory":1,"la1":30.2991,"la2":30.254,"lo1":-89.0895,"lo2":-89.0444,"dy":0.0017,"dx":0.0017,"nx":28,"ny":28,"refTime":"2024-10-13T21:00:00:Z","depth":0,"parameterNumber":2,"parameterNumberName":"U-component_of_WINDS"},"data":[0,0,0,0,0,0,0,0,0,0,0,0,0,0,0,0,0,0,0,0,0,0,0,0,0,0,0,0,0,0,0,0,0,0,0,0,0,0,0,0,0,0,0,0,0,0,0,0,0,0,0,0,0,0,0,0,0,0,-0.5882,-0.5882,0,-0.583,-0.583,-0.5829,-0.58,-0.58,-0.58,-0.58,-0.5746,-0.5744,-0.5743,0,0,0,0,0,0,0,0,0,0,0,0,0,-0.5956,-0.5955,-0.5882,-0.5882,-0.5881,-0.583,-0.583,-0.5829,-0.58,-0.58,-0.58,-0.58,-0.5746,-0.5745,-0.5743,0,0,0,0,0,0,0,0,0,0,0,0,0,-0.5916,-0.5954,-0.5883,-0.5861,-0.5858,-0.5831,-0.583,-0.5829,-0.58,-0.58,-0.58,-0.58,-0.5747,-0.5745,-0.5743,-0.5732,0,0,-0.5736,-0.5735,0,0,0,0,0,0,0,0,-0.5918,-0.5913,-0.5865,-0.5862,-0.5859,-0.5822,-0.5836,-0.5796,-0.58,-0.5822,-0.58,-0.58,-0.5771,-0.5767,-0.5757,-0.573,-0.5728,-0.5736,-0.5735,-0.5734,-0.5733,0,0,0,0,0,0,0,-0.5921,-0.5915,-0.5862,-0.5864,-0.5861,-0.5853,-0.5847,-0.5828,-0.5798,-0.582,-0.5818,-0.5812,-0.577,-0.5759,-0.5756,-0.5727,-0.5736,-0.5734,-0.5733,-0.5732,-0.5688,-0.5688,0,0,0,0,0,0,-0.5927,-0.5918,-0.5863,-0.586,-0.5889,-0.5852,-0.5845,-0.5834,-0.5798,-0.5792,-0.5813,-0.5811,-0.5763,-0.5758,-0.5754,-0.5739,-0.5734,-0.5732,-0.5731,-0.5688,-0.5688,-0.5688,0,0,0,0,0,0,-0.5929,-0.5923,-0.5866,-0.5888,-0.588,-0.5851,-0.5838,-0.5833,-0.5823,-0.5792,-0.5787,-0.5808,-0.5763,-0.5757,-0.5738,-0.5737,-0.5731,-0.5729,-0.5687,-0.5688,-0.5688,-0.571,0,0,0,0,0,0,-0.5931,-0.5924,-0.592,-0.5888,-0.5879,-0.5851,-0.5838,-0.5832,-0.5819,-0.5817,-0.5786,-0.5781,-0.5762,-0.5741,-0.5736,-0.5734,-0.5728,-0.5687,-0.5687,-0.5688,-0.571,-0.5711,-0.5713,0,0,0,0,0,-0.5934,-0.5928,-0.592,-0.5913,-0.5874,-0.5851,-0.5846,-0.5824,-0.582,-0.5815,-0.5795,-0.5782,-0.5738,-0.5739,-0.5733,-0.5731,-0.5687,-0.5687,-0.5688,-0.5709,-0.5711,-0.5713,0,0,0,0,0,0,-0.596,-0.5924,-0.5914,-0.5898,-0.5878,-0.5846,-0.584,-0.5827,-0.5808,-0.5807,-0.5781,-0.5774,-0.5757,-0.5742,-0.5744,-0.5719,-0.5711,-0.571,-0.5729,-0.5731,-0.5733,-0.5737,-0.5726,0,0,0,0,0,-0.5964,-0.5948,-0.5917,-0.5906,-0.5897,-0.587,-0.5859,-0.5845,-0.5823,-0.5814,-0.5793,-0.5772,-0.5753,-0.5741,-0.5722,-0.5707,-0.57,-0.5702,-0.5704,-0.5705,-0.5705,-0.5695,-0.5696,-0.5688,-0.5688,-0.5688,0,0,-0.5972,-0.595,-0.5942,-0.5911,-0.5894,-0.5878,-0.5863,-0.5847,-0.5835,-0.5811,-0.5792,-0.5776,-0.575,-0.5733,-0.5725,-0.572,-0.5705,-0.5705,-0.5707,-0.5705,-0.5695,-0.5696,-0.5697,-0.5688,-0.5688,-0.5688,0,0,-0.5978,-0.596,-0.5949,-0.5932,-0.5906,-0.5888,-0.5885,-0.5855,-0.5844,-0.5824,-0.5806,-0.5791,-0.5759,-0.5742,-0.5729,-0.5728,-0.5715,-0.5722,-0.573,-0.5721,-0.5722,-0.5722,-0.5722,-0.5722,-0.5722,-0.5722,-0.5722,0,-0.5991,-0.5967,-0.5944,-0.5929,-0.5916,-0.5894,-0.5882,-0.5866,-0.5835,-0.5826,-0.5822,-0.5781,-0.5763,-0.5741,-0.5741,-0.5731,-0.5727,-0.5726,-0.5724,-0.5724,-0.5724,-0.5723,-0.5723,-0.5723,-0.5723,-0.5723,-0.5722,0,-0.5984,-0.5968,-0.5962,-0.5933,-0.5918,-0.5905,-0.588,-0.5868,-0.5855,-0.5837,-0.5817,-0.5794,-0.577,-0.5764,-0.575,-0.574,-0.5738,-0.5729,-0.5721,-0.5726,-0.5725,-0.5725,-0.5724,-0.5724,-0.5724,-0.5723,0,0,-0.6006,-0.5964,-0.5962,-0.5949,-0.5918,-0.5905,-0.589,-0.5867,-0.5857,-0.5836,-0.5823,-0.5796,-0.5788,-0.5773,-0.5757,-0.5749,-0.575,-0.5741,-0.574,-0.5743,-0.5737,-0.5744,-0.5744,-0.5741,-0.574,-0.574,-0.5739,0,-0.6008,-0.5981,-0.596,-0.5941,-0.5925,-0.5903,-0.589,-0.587,-0.5853,-0.5837,-0.5818,-0.58,-0.579,-0.5781,-0.5772,-0.5752,-0.5748,-0.5751,-0.5728,-0.5727,-0.5735,-0.5743,-0.5751,-0.5751,-0.5738,-0.5738,-0.5738,0,-0.6007,-0.5987,-0.5967,-0.5937,-0.593,-0.5919,-0.5895,-0.588,-0.5856,-0.5844,-0.5828,-0.5811,-0.5794,-0.5787,-0.5763,-0.5766,-0.5755,-0.5743,-0.5743,-0.574,-0.5733,-0.5741,-0.575,-0.575,-0.5737,-0.5737,-0.5737,0,-0.6025,-0.5993,-0.5977,-0.5966,-0.5931,-0.5924,-0.5909,-0.5885,-0.5872,-0.5851,-0.5842,-0.582,-0.5807,-0.579,-0.5768,-0.5765,-0.5746,-0.5737,-0.5735,-0.5736,-0.5733,-0.5733,-0.574,-0.5725,-0.5725,-0.5725,-0.5725,0,-0.603,-0.6018,-0.5985,-0.5975,-0.596,-0.5936,-0.5923,-0.5906,-0.5884,-0.587,-0.5849,-0.5836,-0.5807,-0.5791,-0.5773,-0.5755,-0.575,-0.574,-0.5735,-0.5742,-0.5743,-0.5734,-0.5734,-0.5725,-0.5725,-0.5725,-0.5725,0,-0.6048,-0.6025,-0.6006,-0.5974,-0.5966,-0.5957,-0.593,-0.5919,-0.5901,-0.5883,-0.5877,-0.5849,-0.5828,-0.5804,-0.5775,-0.5763,-0.5747,-0.574,-0.5755,-0.5753,-0.5752,-0.5753,-0.5754,-0.5753,-0.5739,-0.5739,-0.5739,0,-0.6053,-0.6044,-0.6011,-0.6,-0.5986,-0.5969,-0.5956,-0.5931,-0.5917,-0.5889,-0.5881,-0.5859,-0.584,-0.5808,-0.5784,-0.5762,-0.5754,-0.5756,-0.5751,-0.5757,-0.5754,-0.5755,-0.5754,-0.5758,-0.5758,-0.5758,-0.5759,0,-0.6064,-0.6053,-0.6035,-0.6013,-0.5997,-0.5979,-0.5959,-0.5951,-0.5922,-0.5908,-0.5887,-0.5872,-0.5842,-0.582,-0.5795,-0.5779,-0.5764,-0.576,-0.5759,-0.5766,-0.5775,-0.577,-0.576,-0.5761,-0.576,-0.576,-0.576,-0.576,-0.6076,-0.6066,-0.6042,-0.6022,-0.6005,-0.5987,-0.5975,-0.5955,-0.5937,-0.5911,-0.5897,-0.5876,-0.5851,-0.5815,-0.58,-0.5782,-0.5777,-0.5775,-0.5775,-0.5774,-0.5776,-0.5777,-0.5778,-0.5778,-0.5778,-0.5777,-0.5777,0,-0.6086,-0.6069,-0.6051,-0.6024,-0.6009,-0.5996,-0.5973,-0.5961,-0.5942,-0.5921,-0.5902,-0.5877,-0.5856,-0.583,-0.5806,-0.5797,-0.579,-0.5792,-0.5793,-0.5789,-0.5782,-0.5786,-0.5799,-0.5799,-0.5799,-0.5799,-0.5799,-0.5799,-0.609,-0.6073,-0.6059,-0.6032,-0.6015,-0.5995,-0.5983,-0.5966,-0.5948,-0.5921,-0.5903,-0.5887,-0.5863,-0.5838,-0.5817,-0.581,-0.5802,-0.5806,-0.5797,-0.5791,-0.579,-0.5788,-0.5791,-0.5805,-0.5805,-0.5806,-0.5806,-0.5806]},{"header":{"parameterUnit":"m.s-1","parameterCategory":1,"la1":30.2991,"la2":30.254,"lo1":-89.0895,"lo2":-89.0444,"dy":0.0017,"dx":0.0017,"nx":28,"ny":28,"refTime":"2024-10-13T21:00:00:Z","depth":0,"parameterNumber":3,"parameterNumberName":"V-component_of_WINDS"},"data":[0,0,0,0,0,0,0,0,0,0,0,0,0,0,0,0,0,0,0,0,0,0,0,0,0,0,0,0,0,0,0,0,0,0,0,0,0,0,0,0,0,0,0,0,0,0,0,0,0,0,0,0,0,0,0,0,0,0,-4.8367,-4.8368,0,-4.8443,-4.8444,-4.8445,-4.8433,-4.8432,-4.843,-4.8429,-4.8501,-4.8504,-4.8507,0,0,0,0,0,0,0,0,0,0,0,0,0,-4.8206,-4.8209,-4.8367,-4.8368,-4.8369,-4.8443,-4.8444,-4.8445,-4.8433,-4.8432,-4.843,-4.8429,-4.85,-4.8504,-4.8508,0,0,0,0,0,0,0,0,0,0,0,0,0,-4.8279,-4.821,-4.8367,-4.8372,-4.8373,-4.8443,-4.8444,-4.8445,-4.8433,-4.8432,-4.843,-4.8428,-4.8499,-4.8504,-4.8508,-4.8576,0,0,-4.8523,-4.8525,0,0,0,0,0,0,0,0,-4.8274,-4.8284,-4.837,-4.8372,-4.8373,-4.8427,-4.8414,-4.8489,-4.8434,-4.841,-4.8429,-4.8427,-4.8478,-4.8484,-4.8502,-4.8579,-4.8582,-4.8523,-4.8526,-4.8528,-4.8529,0,0,0,0,0,0,0,-4.8269,-4.8281,-4.8397,-4.8371,-4.8373,-4.8369,-4.8377,-4.8428,-4.8454,-4.8412,-4.8412,-4.8421,-4.8478,-4.8498,-4.8504,-4.8583,-4.8523,-4.8527,-4.853,-4.8532,-4.8719,-4.8722,0,0,0,0,0,0,-4.8264,-4.8277,-4.8394,-4.8399,-4.8318,-4.8373,-4.8383,-4.8411,-4.8453,-4.8458,-4.8423,-4.842,-4.8491,-4.8498,-4.8506,-4.8588,-4.8528,-4.8532,-4.8535,-4.8717,-4.872,-4.8722,0,0,0,0,0,0,-4.826,-4.8274,-4.8391,-4.8338,-4.8353,-4.8378,-4.8411,-4.8414,-4.8434,-4.8461,-4.8465,-4.8439,-4.849,-4.85,-4.8559,-4.859,-4.8534,-4.8539,-4.8715,-4.8718,-4.8721,-4.8752,0,0,0,0,0,0,-4.8256,-4.8273,-4.83,-4.8339,-4.8356,-4.8444,-4.8413,-4.8417,-4.8443,-4.844,-4.8477,-4.8481,-4.8489,-4.8552,-4.8564,-4.8596,-4.8542,-4.8712,-4.8716,-4.872,-4.8748,-4.8756,-4.8763,0,0,0,0,0,-4.825,-4.8304,-4.8302,-4.8316,-4.839,-4.8446,-4.8455,-4.8465,-4.8445,-4.8472,-4.8489,-4.848,-4.8586,-4.8558,-4.8571,-4.8605,-4.871,-4.8715,-4.872,-4.8745,-4.8755,-4.8763,0,0,0,0,0,0,-4.8266,-4.8309,-4.8307,-4.8376,-4.8408,-4.8444,-4.8478,-4.8474,-4.8511,-4.8507,-4.8515,-4.8524,-4.8584,-4.8601,-4.8569,-4.8673,-4.8645,-4.8652,-4.866,-4.8669,-4.8676,-4.867,-4.8546,0,0,0,0,0,-4.8278,-4.8322,-4.8357,-4.8414,-4.843,-4.8452,-4.8476,-4.8481,-4.8514,-4.8526,-4.8548,-4.8579,-4.8619,-4.8645,-4.8683,-4.8751,-4.8759,-4.8781,-4.8788,-4.8794,-4.88,-4.8837,-4.8848,-4.8738,-4.8738,-4.8738,0,0,-4.8302,-4.8331,-4.8358,-4.8418,-4.8443,-4.8487,-4.8463,-4.851,-4.8542,-4.8533,-4.8591,-4.8608,-4.8643,-4.8707,-4.8736,-4.8722,-4.8832,-4.88,-4.8805,-4.8808,-4.8843,-4.8854,-4.8863,-4.8742,-4.8741,-4.8741,0,0,-4.8369,-4.8396,-4.8447,-4.8473,-4.8513,-4.8527,-4.8539,-4.8577,-4.8589,-4.8648,-4.8642,-4.868,-4.8749,-4.8774,-4.8795,-4.8874,-4.8866,-4.8886,-4.8922,-4.8959,-4.8967,-4.8975,-4.9002,-4.9012,-4.8892,-4.8892,-4.8892,0,-4.8393,-4.846,-4.8472,-4.8521,-4.8547,-4.8544,-4.8595,-4.862,-4.8669,-4.8686,-4.8671,-4.8759,-4.8782,-4.8851,-4.8871,-4.8889,-4.8902,-4.8881,-4.8965,-4.8973,-4.898,-4.9006,-4.9017,-4.8894,-4.8894,-4.8894,-4.8894,0,-4.8488,-4.8535,-4.8571,-4.8622,-4.8652,-4.8701,-4.872,-4.8749,-4.8752,-4.8767,-4.8827,-4.8855,-4.8899,-4.8916,-4.8918,-4.8986,-4.8977,-4.8964,-4.8935,-4.8993,-4.9017,-4.9027,-4.8897,-4.8897,-4.8896,-4.8895,0,0,-4.8564,-4.8623,-4.8636,-4.866,-4.8704,-4.874,-4.8789,-4.8834,-4.8859,-4.8893,-4.8934,-4.8993,-4.8982,-4.9007,-4.9012,-4.9044,-4.9103,-4.9026,-4.9027,-4.9039,-4.918,-4.9189,-4.92,-4.9099,-4.9101,-4.9103,-4.9177,0,-4.8635,-4.8724,-4.8737,-4.8815,-4.8858,-4.8856,-4.8899,-4.893,-4.8946,-4.8984,-4.9001,-4.9043,-4.9025,-4.904,-4.9071,-4.9089,-4.9131,-4.9084,-4.9135,-4.9137,-4.9126,-4.9213,-4.9223,-4.9291,-4.9186,-4.9188,-4.9189,0,-4.8728,-4.8768,-4.8851,-4.8891,-4.8909,-4.8948,-4.8991,-4.9028,-4.9063,-4.9072,-4.9101,-4.9102,-4.9152,-4.9123,-4.9191,-4.9158,-4.918,-4.9192,-4.9195,-4.9199,-4.9166,-4.9218,-4.9313,-4.9323,-4.9205,-4.9203,-4.9202,0,-4.8775,-4.8849,-4.8908,-4.8928,-4.8976,-4.9003,-4.9024,-4.9058,-4.9085,-4.9122,-4.914,-4.9182,-4.9204,-4.9236,-4.9248,-4.9226,-4.9315,-4.9287,-4.9323,-4.9322,-4.934,-4.9339,-4.9438,-4.9356,-4.9356,-4.9356,-4.9356,0,-4.8851,-4.8901,-4.893,-4.8966,-4.9023,-4.9037,-4.9092,-4.9112,-4.9142,-4.9181,-4.9182,-4.9218,-4.9233,-4.9271,-4.9281,-4.9335,-4.9346,-4.9353,-4.9355,-4.9353,-4.9352,-4.9366,-4.9361,-4.9359,-4.9358,-4.9357,-4.9357,0,-4.8911,-4.8933,-4.8998,-4.9039,-4.9051,-4.9091,-4.9125,-4.916,-4.9176,-4.9226,-4.9238,-4.9263,-4.9309,-4.9325,-4.9379,-4.9386,-4.9448,-4.9447,-4.9437,-4.9437,-4.9472,-4.9468,-4.9583,-4.9599,-4.9507,-4.9508,-4.9509,0,-4.8958,-4.8997,-4.9044,-4.9072,-4.9094,-4.9138,-4.9167,-4.9183,-4.9212,-4.9256,-4.9285,-4.9331,-4.9368,-4.944,-4.9462,-4.9503,-4.9502,-4.9539,-4.9508,-4.9504,-4.9501,-4.9498,-4.9502,-4.9544,-4.9545,-4.9546,-4.9547,0,-4.9038,-4.9048,-4.909,-4.9136,-4.9171,-4.9207,-4.9242,-4.9264,-4.9285,-4.9318,-4.9366,-4.9395,-4.9452,-4.9496,-4.9539,-4.9559,-4.9556,-4.9557,-4.9567,-4.9565,-4.9557,-4.9561,-4.9452,-4.9554,-4.9553,-4.9553,-4.9552,-4.9552,-4.9093,-4.9128,-4.9167,-4.9214,-4.9243,-4.9276,-4.9311,-4.9334,-4.9374,-4.9423,-4.943,-4.9481,-4.9516,-4.9574,-4.9595,-4.9634,-4.9624,-4.9639,-4.9642,-4.9646,-4.9648,-4.9553,-4.9642,-4.9642,-4.9642,-4.9642,-4.9641,0,-4.9172,-4.9198,-4.9242,-4.9292,-4.9329,-4.9327,-4.9366,-4.9396,-4.9442,-4.9476,-4.9513,-4.9568,-4.9612,-4.9639,-4.9682,-4.9708,-4.9708,-4.9719,-4.9717,-4.9721,-4.9655,-4.9642,-4.9719,-4.9719,-4.9719,-4.9719,-4.9719,-4.9719,-4.9218,-4.9278,-4.9292,-4.9366,-4.939,-4.9442,-4.9465,-4.9496,-4.9523,-4.9585,-4.9622,-4.964,-4.9671,-4.9717,-4.9757,-4.9764,-4.9779,-4.9791,-4.9796,-4.9734,-4.9726,-4.9718,-4.9705,-4.9795,-4.9795,-4.9859,-4.986,-4.986]}]]